Tracking 20241 objects as of 28-Jan-2020
HD Live streaming from Space Station
objects crossing your sky now

CZ-2D DEB

Track CZ-2D DEB now!
10-day predictions


NORAD ID: 43507
Int'l Code: 2018-025E
Perigee: 421.7 km
Apogee: 485.2 km
Inclination: 97.3 °
Period: 93.5 minutes
Semi major axis: 6824 km
RCS: Unknown
Launch date: March 17, 2018
Source: People's Republic of China (PRC)
Launch site: Jiuquan Satellite Launch Center, China (JSC)

Note: This is SATELLITE DEBRIS
aabbcc
Your satellite tracking list
Your tracking list is empty




NASA's NSSDC Master Catalog

Two Line Element Set (TLE):
1 43507U 18025E   20027.85681911 +.00003241 +00000-0 +80579-4 0  9998
2 43507 097.2809 149.4690 0046550 032.8718 327.5408 15.39925088102235
Source of the keplerian elements: AFSPC